Liberia, Costa Rica

7:24 AM CST on May 27, 2017 (GMT -0600)
Daniel Oduber Quiros International

Weather History for MRLB - August, 2014

Change the Weather History Date:

Wednesday, August 13, 2014

  Actual Average Record
Temperature  
Mean Temperature 84 °F -  
Max Temperature 96 °F 86 °F 96 °F (2014)
Min Temperature 71 °F 74 °F 71 °F (2014)
Cooling Degree Days 18    
Growing Degree Days 34 (Base 50)    
Moisture  
Dew Point 70 °F    
Average Humidity 61    
Maximum Humidity 94    
Minimum Humidity 30    
Precipitation  
Precipitation 0.00 in - - ()
Sea Level Pressure  
Sea Level Pressure 29.85 in    
Wind  
Wind Speed 7 mph ()    
Max Wind Speed 18 mph    
Max Gust Speed -    
Visibility 8.0 miles    
Events      
Averages and records for this station are not official NWS values.
T = Trace of Precipitation, MM = Missing Value Source: Averaged Metar Reports

Daily Weather History Graph

Daily Weather History Graph

Search for Another Location

Airport or City:

Trip Planner

Search our weather history database for the weather conditions in past years. The results will help you decide how hot, cold, wet, or windy it might be!

Date:

Astronomy

Aug. 13, 2014 Rise Set
Actual Time 5:32 AM CST 6:01 PM CST
Civil Twilight 5:10 AM CST 6:23 PM CST
Nautical Twilight 4:45 AM CST 6:48 PM CST
Astronomical Twilight 4:19 AM CST 7:14 PM CST
Moon 8:37 PM CST (8/13) 8:14 AM CST (8/13)
Length of Visible Light 13h 12m
Length of Day
12h 29m
Waning Gibbous, 87% of the Moon is Illuminated
Aug 13
Waning Gibbous
Aug 17
Last Quarter
Aug 25
New
Sep 2
First Quarter
Sep 8
Full

Hourly Weather History & Observations

Time (CST) Temp. Heat Index Dew Point Humidity Pressure Visibility Wind Dir Wind Speed Gust Speed Precip Events Conditions
6:00 AM 72 °F - 69 °F 88% 29.84 in 12 mi NE 4.6 mph - -   Scattered Clouds
6:00 AM 71.6 °F - 69.8 °F 94% 29.84 in 6.2 mi NE 4.6 mph - N/A   Mostly Cloudy
7:00 AM 75.2 °F - 71.6 °F 89% 29.86 in 6.2 mi ENE 3.5 mph - N/A   Mostly Cloudy
8:00 AM 77.0 °F - 71.6 °F 83% 29.87 in - West 3.5 mph - N/A   Clear
9:00 AM 84 °F - 73 °F 62% 29.88 in 12 mi ENE 3.5 mph - -   Clear
9:00 AM 84.2 °F 90.9 °F 73.4 °F 70% 29.88 in - ENE 3.5 mph - N/A   Clear
10:00 AM 91.4 °F 95.4 °F 68.0 °F 46% 29.86 in - East 18.4 mph - N/A   Clear
11:00 AM 91.4 °F 95.4 °F 68.0 °F 46% 29.85 in - East 16.1 mph - N/A   Clear
12:00 PM 93 °F - 67 °F 33% 29.84 in 12 mi East 16.1 mph - -   Overcast
12:00 PM 93.2 °F 96.2 °F 66.2 °F 41% 29.83 in 6.2 mi East 16.1 mph - N/A   Mostly Cloudy
1:00 PM 95.0 °F 98.5 °F 66.2 °F 39% 29.81 in 6.2 mi East 13.8 mph - N/A   Mostly Cloudy
2:00 PM 96.8 °F 101.8 °F 68.0 °F 39% 29.80 in 6.2 mi East 11.5 mph - N/A   Mostly Cloudy
3:00 PM 96 °F - 68 °F 30% 29.83 in 12 mi East 10.4 mph - -   Overcast
3:00 PM 95.0 °F 99.5 °F 68.0 °F 41% 29.80 in 6.2 mi East 10.4 mph - N/A   Mostly Cloudy
4:00 PM 91.4 °F 95.4 °F 68.0 °F 46% 29.80 in 6.2 mi ENE 9.2 mph - N/A   Mostly Cloudy
5:00 PM 86.0 °F 93.4 °F 73.4 °F 66% 29.82 in 6.2 mi WNW 10.4 mph - N/A   Mostly Cloudy
6:00 PM 83 °F - 75 °F 70% 29.88 in 12 mi WNW 8.1 mph - -   Overcast
6:00 PM 82.4 °F 89.5 °F 75.2 °F 79% 29.85 in 6.2 mi WNW 8.1 mph - N/A   Mostly Cloudy
7:00 PM 82.4 °F 89.5 °F 75.2 °F 79% 29.88 in 6.2 mi NW 5.8 mph - N/A   Scattered Clouds
8:00 PM 82.4 °F 89.5 °F 75.2 °F 79% 29.88 in 6.2 mi ENE 3.5 mph - N/A   Scattered Clouds